| time (UTC) | temp F | wind direction | speed knots | gust knots | rain 1hr in | rain 24hr in | rain mn in | humidity % | barometer mb |
| 20260504232048 | 49 | 107 | 0.0 | 2.6 | 0.00 | 0.36 | 0.00 | 94 | 950.7 |
| 20260504231649 | 49 | 107 | 0.9 | 2.6 | 0.00 | 0.36 | 0.00 | 93 | 950.7 |
| 20260504231548 | 49 | 107 | 0.9 | 2.6 | 0.00 | 0.36 | 0.00 | 93 | 950.7 |
| 20260504231148 | 49 | 109 | 2.6 | 2.6 | 0.00 | 0.37 | 0.00 | 93 | 950.8 |
| 20260504231048 | 49 | 104 | 1.7 | 2.6 | 0.00 | 0.37 | 0.00 | 92 | 950.8 |
| 20260504230648 | 49 | 100 | 1.7 | 1.7 | 0.00 | 0.38 | 0.00 | 92 | 950.7 |
| 20260504230547 | 49 | 133 | 0.9 | 1.7 | 0.00 | 0.38 | 0.00 | 92 | 950.7 |
| 20260504230147 | 49 | 135 | 0.0 | 0.9 | 0.00 | 0.38 | 0.00 | 91 | 950.7 |
| 20260504230047 | 49 | 135 | 0.0 | 0.9 | 0.00 | 0.38 | 0.00 | 91 | 950.7 |
| 20260504225648 | 49 | 135 | 0.0 | 0.9 | 0.00 | 0.38 | 0.00 | 91 | 950.7 |
| 20260504225546 | 49 | 135 | 0.0 | 0.9 | 0.00 | 0.38 | 0.00 | 91 | 950.7 |
| 20260504225148 | 49 | 137 | 0.0 | 0.9 | 0.00 | 0.38 | 0.00 | 91 | 950.6 |
| 20260504225048 | 49 | 137 | 0.0 | 0.9 | 0.00 | 0.38 | 0.00 | 91 | 950.7 |
| 20260504224759 | 49 | 137 | 0.0 | 0.0 | 0.00 | 0.38 | 0.00 | 91 | 950.7 |
| 20260504224148 | 49 | 142 | 0.0 | 0.0 | 0.00 | 0.38 | 0.00 | 91 | 950.8 |
| 20260504224047 | 49 | 142 | 0.0 | 0.0 | 0.00 | 0.38 | 0.00 | 91 | 950.8 |
| 20260504223750 | 49 | 142 | 0.0 | 0.0 | 0.00 | 0.38 | 0.00 | 90 | 950.8 |
| 20260504223147 | 49 | 142 | 0.0 | 0.9 | 0.00 | 0.38 | 0.00 | 91 | 950.9 |
| 20260504223040 | 49 | 142 | 0.0 | 0.9 | 0.00 | 0.38 | 0.00 | 90 | 950.9 |
| 20260504222648 | 49 | 142 | 0.0 | 1.7 | 0.00 | 0.38 | 0.00 | 91 | 950.8 |
| 20260504222535 | 49 | 142 | 0.0 | 1.7 | 0.00 | 0.38 | 0.00 | 91 | 950.9 |
| 20260504222147 | 49 | 142 | 0.0 | 2.6 | 0.00 | 0.38 | 0.00 | 91 | 950.9 |
| 20260504222035 | 49 | 135 | 0.0 | 2.6 | 0.00 | 0.38 | 0.00 | 91 | 950.9 |
| 20260504221743 | 49 | 128 | 0.0 | 3.5 | 0.00 | 0.38 | 0.00 | 91 | 950.9 |
| 20260504221239 | 49 | 142 | 0.9 | 3.5 | 0.00 | 0.38 | 0.00 | 90 | 950.9 |
| 20260504220647 | 49 | 140 | 0.9 | 2.6 | 0.00 | 0.38 | 0.00 | 90 | 950.9 |
| 20260504220530 | 49 | 140 | 1.7 | 2.6 | 0.00 | 0.38 | 0.00 | 90 | 950.9 |
| 20260504220146 | 49 | 121 | 0.0 | 1.7 | 0.00 | 0.38 | 0.00 | 90 | 950.9 |
| 20260504220031 | 49 | 121 | 0.0 | 1.7 | 0.00 | 0.38 | 0.00 | 90 | 951.0 |
| 20260504215646 | 49 | 121 | 0.0 | 1.7 | 0.00 | 0.38 | 0.38 | 90 | 951.0 |
| 20260504215530 | 49 | 121 | 0.0 | 0.9 | 0.00 | 0.38 | 0.38 | 90 | 951.0 |
| 20260504215147 | 49 | 111 | 0.0 | 2.6 | 0.00 | 0.38 | 0.38 | 90 | 951.0 |
| 20260504215031 | 49 | 110 | 0.0 | 2.6 | 0.00 | 0.38 | 0.38 | 90 | 951.1 |
| 20260504214647 | 49 | 110 | 0.0 | 2.6 | 0.00 | 0.38 | 0.38 | 90 | 951.1 |
| 20260504214531 | 49 | 110 | 0.0 | 2.6 | 0.00 | 0.38 | 0.38 | 90 | 951.1 |
| 20260504214146 | 49 | 130 | 0.9 | 2.6 | 0.00 | 0.38 | 0.38 | 90 | 951.1 |
| 20260504214031 | 49 | 107 | 0.9 | 2.6 | 0.00 | 0.38 | 0.38 | 90 | 951.1 |
| 20260504213646 | 49 | 116 | 0.0 | 1.7 | 0.00 | 0.38 | 0.38 | 91 | 951.1 |
| 20260504213531 | 49 | 116 | 0.0 | 1.7 | 0.00 | 0.38 | 0.38 | 91 | 951.2 |
| 20260504213146 | 49 | 124 | 0.0 | 0.9 | 0.00 | 0.38 | 0.38 | 91 | 951.3 |
| 20260504213031 | 49 | 138 | 0.0 | 0.9 | 0.00 | 0.38 | 0.38 | 91 | 951.3 |
| 20260504212645 | 49 | 165 | 0.0 | 0.0 | 0.00 | 0.38 | 0.38 | 91 | 951.3 |
| 20260504212531 | 49 | 165 | 0.0 | 0.0 | 0.00 | 0.38 | 0.38 | 91 | 951.4 |
| 20260504212145 | 50 | 165 | 0.0 | 0.9 | 0.00 | 0.38 | 0.38 | 91 | 951.3 |
| 20260504212031 | 50 | 168 | 0.0 | 0.9 | 0.00 | 0.38 | 0.38 | 91 | 951.4 |
| 20260504211644 | 49 | 195 | 0.0 | 0.9 | 0.00 | 0.38 | 0.38 | 91 | 951.4 |
| 20260504211531 | 49 | 195 | 0.0 | 0.9 | 0.00 | 0.38 | 0.38 | 90 | 951.4 |
| 20260504211239 | 50 | 193 | 0.0 | 0.9 | 0.00 | 0.38 | 0.38 | 90 | 951.3 |
| 20260504210741 | 50 | 186 | 0.0 | 2.6 | 0.00 | 0.38 | 0.38 | 90 | 951.5 |
| 20260504210142 | 50 | 155 | 0.0 | 2.6 | 0.00 | 0.38 | 0.38 | 90 | 951.4 |
| 20260504210033 | 50 | 125 | 0.9 | 2.6 | 0.00 | 0.38 | 0.38 | 90 | 951.4 |
| 20260504205634 | 50 | 113 | 0.9 | 2.6 | 0.00 | 0.38 | 0.38 | 90 | 951.3 |
| 20260504205530 | 50 | 113 | 0.9 | 2.6 | 0.00 | 0.38 | 0.38 | 90 | 951.3 |
| 20260504205132 | 50 | 127 | 0.0 | 0.9 | 0.00 | 0.38 | 0.38 | 91 | 951.3 |
| 20260504205031 | 50 | 127 | 0.0 | 0.9 | 0.00 | 0.38 | 0.38 | 91 | 951.3 |
| 20260504204632 | 49 | 127 | 0.0 | 0.9 | 0.00 | 0.38 | 0.38 | 90 | 951.3 |
| 20260504204532 | 49 | 127 | 0.0 | 0.9 | 0.00 | 0.38 | 0.38 | 91 | 951.3 |
| 20260504204132 | 50 | 127 | 0.0 | 1.7 | 0.00 | 0.38 | 0.38 | 90 | 951.3 |
| 20260504204031 | 50 | 127 | 0.0 | 1.7 | 0.00 | 0.38 | 0.38 | 90 | 951.3 |
| 20260504203632 | 49 | 203 | 0.0 | 1.7 | 0.00 | 0.38 | 0.38 | 90 | 951.3 |
| 20260504203530 | 49 | 124 | 0.0 | 1.7 | 0.00 | 0.38 | 0.38 | 90 | 951.3 |
| 20260504203239 | 49 | 123 | 0.0 | 1.7 | 0.00 | 0.38 | 0.38 | 90 | 951.2 |
| 20260504202633 | 49 | 123 | 0.0 | 0.9 | 0.00 | 0.38 | 0.38 | 90 | 951.1 |
| 20260504202532 | 49 | 123 | 0.0 | 0.9 | 0.00 | 0.38 | 0.38 | 90 | 951.1 |
| 20260504202131 | 49 | 123 | 0.0 | 0.9 | 0.00 | 0.38 | 0.38 | 90 | 951.1 |
| 20260504202031 | 49 | 123 | 0.0 | 0.9 | 0.00 | 0.38 | 0.38 | 90 | 951.1 |
| 20260504201632 | 49 | 123 | 0.0 | 2.6 | 0.00 | 0.38 | 0.38 | 90 | 951.1 |
| 20260504201531 | 49 | 123 | 0.0 | 2.6 | 0.00 | 0.38 | 0.38 | 90 | 951.1 |
| 20260504201240 | 49 | 123 | 0.9 | 2.6 | 0.00 | 0.38 | 0.38 | 90 | 951.1 |
| 20260504200632 | 49 | 140 | 0.9 | 1.7 | 0.00 | 0.38 | 0.38 | 91 | 951.0 |
| 20260504200531 | 49 | 133 | 0.0 | 1.7 | 0.00 | 0.38 | 0.38 | 91 | 951.0 |
| 20260504200131 | 49 | 131 | 0.0 | 2.6 | 0.00 | 0.38 | 0.38 | 91 | 950.9 |
| 20260504200032 | 49 | 131 | 0.0 | 2.6 | 0.00 | 0.38 | 0.38 | 90 | 951.0 |
| 20260504195632 | 49 | 131 | 0.9 | 2.6 | 0.00 | 0.38 | 0.38 | 91 | 950.9 |
| 20260504195532 | 49 | 131 | 0.0 | 2.6 | 0.00 | 0.38 | 0.38 | 90 | 950.9 |
| 20260504195132 | 49 | 137 | 0.9 | 2.6 | 0.00 | 0.38 | 0.38 | 90 | 950.9 |
| 20260504195028 | 49 | 137 | 0.9 | 2.6 | 0.00 | 0.38 | 0.38 | 90 | 950.8 |
| 20260504194633 | 49 | 103 | 0.9 | 2.6 | 0.00 | 0.38 | 0.38 | 90 | 950.9 |
| 20260504194520 | 49 | 134 | 0.9 | 2.6 | 0.00 | 0.38 | 0.38 | 90 | 950.8 |
| 20260504194131 | 49 | 135 | 0.0 | 2.6 | 0.00 | 0.38 | 0.38 | 90 | 950.7 |
| 20260504194013 | 49 | 135 | 0.9 | 2.6 | 0.00 | 0.38 | 0.38 | 89 | 950.8 |
| 20260504193632 | 49 | 99 | 0.9 | 0.9 | 0.00 | 0.38 | 0.38 | 89 | 950.7 |
| 20260504193504 | 49 | 99 | 0.0 | 0.9 | 0.00 | 0.38 | 0.38 | 89 | 950.7 |
| 20260504193211 | 49 | 97 | 0.0 | 0.9 | 0.00 | 0.38 | 0.38 | 89 | 950.7 |
| 20260504192712 | 49 | 97 | 0.0 | 1.7 | 0.00 | 0.38 | 0.38 | 88 | 950.8 |
| 20260504192131 | 49 | 94 | 0.9 | 1.7 | 0.00 | 0.38 | 0.38 | 88 | 950.7 |
| 20260504192003 | 49 | 104 | 0.0 | 0.9 | 0.00 | 0.38 | 0.38 | 88 | 950.7 |
| 20260504191632 | 50 | 104 | 0.0 | 0.9 | 0.00 | 0.38 | 0.38 | 88 | 950.6 |
| 20260504191503 | 50 | 104 | 0.0 | 0.9 | 0.00 | 0.38 | 0.38 | 87 | 950.6 |
| 20260504191131 | 50 | 103 | 0.0 | 0.0 | 0.00 | 0.38 | 0.38 | 87 | 950.5 |
| 20260504191003 | 50 | 103 | 0.0 | 0.0 | 0.00 | 0.38 | 0.38 | 87 | 950.5 |
| 20260504190632 | 50 | 103 | 0.0 | 0.0 | 0.00 | 0.38 | 0.38 | 87 | 950.4 |
| 20260504190502 | 50 | 103 | 0.0 | 0.9 | 0.00 | 0.38 | 0.38 | 87 | 950.5 |
| 20260504190130 | 50 | 103 | 0.0 | 3.5 | 0.00 | 0.38 | 0.38 | 86 | 950.4 |
| 20260504190002 | 50 | 103 | 0.0 | 4.3 | 0.00 | 0.38 | 0.38 | 86 | 950.3 |
| 20260504185633 | 51 | 103 | 0.0 | 5.2 | 0.00 | 0.38 | 0.38 | 86 | 950.3 |
| 20260504185502 | 51 | 102 | 0.0 | 5.2 | 0.00 | 0.38 | 0.38 | 85 | 950.3 |
| 20260504185212 | 51 | 110 | 2.6 | 9.6 | 0.00 | 0.38 | 0.38 | 85 | 950.3 |
| 20260504184716 | 51 | 131 | 1.7 | 9.6 | 0.00 | 0.38 | 0.38 | 85 | 950.3 |
| 20260504184131 | 51 | 104 | 0.9 | 3.5 | 0.00 | 0.38 | 0.38 | 85 | 950.3 |
| 20260504184003 | 51 | 106 | 0.9 | 3.5 | 0.00 | 0.38 | 0.38 | 85 | 950.3 |
| 20260504183632 | 51 | 99 | 1.7 | 6.1 | 0.00 | 0.38 | 0.38 | 84 | 950.2 |
| 20260504183503 | 51 | 109 | 0.0 | 6.1 | 0.00 | 0.38 | 0.38 | 84 | 950.3 |
| 20260504183132 | 51 | 178 | 0.0 | 10.4 | 0.00 | 0.38 | 0.38 | 83 | 950.3 |
| 20260504183002 | 51 | 120 | 2.6 | 10.4 | 0.00 | 0.38 | 0.38 | 83 | 950.2 |
| 20260504182633 | 52 | 71 | 1.7 | 13.0 | 0.00 | 0.38 | 0.38 | 82 | 950.2 |
| 20260504182502 | 52 | 214 | 4.3 | 13.0 | 0.00 | 0.38 | 0.38 | 83 | 950.1 |
| 20260504182212 | 52 | 128 | 4.3 | 13.0 | 0.00 | 0.38 | 0.38 | 83 | 950.1 |
| 20260504181630 | 52 | 116 | 2.6 | 10.4 | 0.00 | 0.38 | 0.38 | 82 | 950.2 |
| 20260504181502 | 52 | 142 | 3.5 | 10.4 | 0.00 | 0.39 | 0.38 | 82 | 950.1 |
| 20260504181122 | 52 | 99 | 5.2 | 10.4 | 0.00 | 0.39 | 0.38 | 82 | 950.2 |
| 20260504181003 | 52 | 82 | 3.5 | 8.7 | 0.00 | 0.39 | 0.38 | 82 | 950.1 |
| 20260504180615 | 53 | 66 | 2.6 | 9.6 | 0.00 | 0.39 | 0.38 | 80 | 950.1 |
| 20260504180502 | 53 | 48 | 4.3 | 9.6 | 0.00 | 0.39 | 0.38 | 80 | 950.0 |
| 20260504180108 | 53 | 113 | 2.6 | 9.6 | 0.00 | 0.39 | 0.38 | 80 | 950.0 |
| 20260504180005 | 54 | 107 | 3.5 | 9.6 | 0.00 | 0.39 | 0.38 | 80 | 950.0 |
| 20260504175608 | 54 | 89 | 3.5 | 11.3 | 0.00 | 0.39 | 0.38 | 80 | 950.0 |
| 20260504175503 | 54 | 59 | 2.6 | 11.3 | 0.00 | 0.39 | 0.38 | 80 | 950.0 |
| 20260504175212 | 53 | 100 | 2.6 | 11.3 | 0.00 | 0.39 | 0.38 | 80 | 950.0 |
| 20260504174605 | 53 | 94 | 1.7 | 9.6 | 0.00 | 0.39 | 0.38 | 81 | 950.0 |
| 20260504174502 | 53 | 128 | 2.6 | 9.6 | 0.00 | 0.39 | 0.38 | 81 | 950.0 |
| 20260504174103 | 53 | 118 | 4.3 | 9.6 | 0.00 | 0.40 | 0.38 | 80 | 950.0 |
| 20260504174003 | 53 | 107 | 4.3 | 9.6 | 0.00 | 0.40 | 0.38 | 80 | 950.1 |
| 20260504173604 | 54 | 93 | 5.2 | 11.3 | 0.00 | 0.40 | 0.38 | 79 | 950.1 |
| 20260504173503 | 54 | 130 | 4.3 | 11.3 | 0.00 | 0.40 | 0.38 | 79 | 950.1 |
| 20260504173102 | 55 | 90 | 1.7 | 11.3 | 0.00 | 0.40 | 0.38 | 80 | 950.0 |
| 20260504173003 | 55 | 234 | 0.9 | 11.3 | 0.00 | 0.40 | 0.38 | 80 | 950.1 |
| 20260504172602 | 55 | 121 | 1.7 | 9.6 | 0.00 | 0.40 | 0.38 | 79 | 950.2 |
| 20260504172502 | 55 | 72 | 2.6 | 9.6 | 0.00 | 0.40 | 0.38 | 79 | 950.2 |
| 20260504172213 | 54 | 116 | 2.6 | 9.6 | 0.00 | 0.40 | 0.38 | 82 | 950.2 |
| 20260504171605 | 54 | 97 | 3.5 | 5.2 | 0.00 | 0.40 | 0.38 | 81 | 950.0 |
| 20260504171503 | 54 | 133 | 2.6 | 8.7 | 0.00 | 0.40 | 0.38 | 82 | 950.1 |
| 20260504171211 | 54 | 87 | 1.7 | 9.6 | 0.00 | 0.40 | 0.38 | 82 | 950.1 |
| 20260504170710 | 53 | 110 | 4.3 | 10.4 | 0.00 | 0.40 | 0.38 | 82 | 950.1 |
| 20260504170212 | 54 | 121 | 3.5 | 10.4 | 0.00 | 0.40 | 0.38 | 82 | 950.2 |
| 20260504151039 | 55 | 94 | 3.5 | 6.1 | 0.00 | 0.40 | 0.38 | 81 | 949.6 |
| 20260504151003 | 55 | 114 | 3.5 | 6.1 | 0.00 | 0.40 | 0.38 | 81 | 949.6 |
| 20260504150537 | 55 | 94 | 2.6 | 11.3 | 0.00 | 0.40 | 0.38 | 79 | 949.6 |
| 20260504150502 | 55 | 164 | 2.6 | 11.3 | 0.00 | 0.40 | 0.38 | 79 | 949.7 |
| 20260504141031 | 53 | 106 | 2.6 | 10.4 | 0.05 | 0.40 | 0.38 | 84 | 949.7 |
| 20260504141002 | 53 | 96 | 4.3 | 10.4 | 0.05 | 0.40 | 0.38 | 85 | 949.7 |
| 20260504140532 | 53 | 94 | 3.5 | 9.6 | 0.06 | 0.40 | 0.38 | 86 | 949.6 |
| 20260504140503 | 53 | 76 | 4.3 | 9.6 | 0.06 | 0.40 | 0.38 | 86 | 949.6 |
| 20260504140211 | 52 | 87 | 1.7 | 4.3 | 0.09 | 0.40 | 0.38 | 88 | 949.5 |
| 20260504130532 | 50 | 94 | 0.9 | 7.8 | 0.27 | 0.36 | 0.31 | 91 | 950.3 |
| 20260504130503 | 50 | 93 | 0.9 | 7.8 | 0.27 | 0.36 | 0.31 | 92 | 950.3 |
| 20260504130211 | 50 | 127 | 4.3 | 7.8 | 0.24 | 0.36 | 0.29 | 92 | 950.4 |
| 20260504120211 | 52 | 128 | 9.6 | 14.8 | 0.01 | 0.13 | 0.05 | 86 | 948.8 |
| 20260504110531 | 54 | 151 | 5.2 | 14.8 | 0.00 | 0.13 | 0.04 | 86 | 949.4 |
| 20260504110502 | 54 | 111 | 7.0 | 14.8 | 0.00 | 0.13 | 0.04 | 85 | 949.4 |
| 20260504100532 | 58 | 128 | 3.5 | 5.2 | 0.00 | 0.13 | 0.04 | 85 | 949.4 |
| 20260504100503 | 58 | 123 | 3.5 | 4.3 | 0.00 | 0.13 | 0.04 | 85 | 949.4 |
| 20260504081711 | 56 | 125 | 0.9 | 2.6 | 0.00 | 0.13 | 0.04 | 90 | 949.4 |
| 20260504081210 | 56 | 120 | 0.0 | 3.5 | 0.00 | 0.13 | 0.04 | 91 | 949.4 |
| 20260504080501 | 55 | 100 | 2.6 | 3.5 | 0.00 | 0.13 | 0.04 | 91 | 949.3 |
| 20260504050426 | 53 | 120 | 0.0 | 0.9 | 0.00 | 0.13 | 0.04 | 95 | 948.8 |
| 20260504045925 | 53 | 117 | 0.0 | 1.7 | 0.00 | 0.13 | 0.04 | 95 | 948.8 |
| 20260504045425 | 53 | 117 | 0.0 | 3.5 | 0.00 | 0.13 | 0.04 | 95 | 948.8 |
| 20260504044925 | 52 | 106 | 1.7 | 3.5 | 0.00 | 0.13 | 0.04 | 95 | 948.9 |
| 20260504044425 | 53 | 245 | 0.9 | 1.7 | 0.00 | 0.13 | 0.04 | 95 | 948.9 |
| 20260504043924 | 53 | 245 | 0.0 | 1.7 | 0.00 | 0.13 | 0.04 | 96 | 948.8 |
| 20260504043424 | 53 | 245 | 0.0 | 1.7 | 0.00 | 0.13 | 0.04 | 96 | 948.9 |
| 20260504042924 | 53 | 247 | 0.9 | 1.7 | 0.00 | 0.13 | 0.04 | 96 | 948.8 |
| 20260504042424 | 53 | 152 | 0.0 | 0.0 | 0.00 | 0.13 | 0.04 | 96 | 948.9 |
| 20260504041924 | 53 | 130 | 0.0 | 1.7 | 0.00 | 0.13 | 0.04 | 96 | 948.9 |
| 20260504041424 | 53 | 130 | 0.0 | 1.7 | 0.00 | 0.13 | 0.04 | 96 | 948.8 |
| 20260504040924 | 53 | 93 | 0.9 | 0.9 | 0.00 | 0.13 | 0.04 | 96 | 948.9 |
| 20260504040632 | 53 | 161 | 0.0 | 0.9 | 0.00 | 0.13 | 0.04 | 96 | 948.9 |
| 20260504035923 | 53 | 161 | 0.0 | 0.0 | 0.00 | 0.13 | 0.04 | 96 | 948.9 |
| 20260504035424 | 53 | 161 | 0.0 | 0.9 | 0.00 | 0.13 | 0.04 | 96 | 949.0 |
| 20260504034923 | 53 | 161 | 0.0 | 0.9 | 0.00 | 0.13 | 0.04 | 95 | 948.9 |
| 20260504034423 | 53 | 161 | 0.0 | 0.9 | 0.00 | 0.13 | 0.04 | 96 | 949.0 |
| 20260504033924 | 53 | 13 | 0.0 | 0.0 | 0.00 | 0.13 | 0.04 | 95 | 949.0 |
| 20260504033423 | 53 | 13 | 0.0 | 0.0 | 0.00 | 0.13 | 0.04 | 96 | 949.0 |
| 20260504032923 | 53 | 13 | 0.0 | 0.0 | 0.00 | 0.13 | 0.04 | 95 | 949.0 |
| 20260504032423 | 53 | 13 | 0.0 | 0.0 | 0.00 | 0.13 | 0.04 | 95 | 949.1 |
| 20260504031923 | 53 | 13 | 0.0 | 2.6 | 0.00 | 0.13 | 0.04 | 95 | 949.2 |
| 20260504031631 | 53 | 13 | 0.9 | 2.6 | 0.00 | 0.13 | 0.04 | 95 | 949.2 |
| 20260504031130 | 53 | 148 | 0.0 | 0.0 | 0.00 | 0.13 | 0.04 | 95 | 949.1 |
| 20260504030423 | 53 | 148 | 0.0 | 0.0 | 0.00 | 0.13 | 0.04 | 95 | 949.2 |
| 20260504030131 | 53 | 148 | 0.0 | 0.0 | 0.00 | 0.13 | 0.04 | 96 | 949.2 |
| 20260504025423 | 53 | 148 | 0.0 | 0.0 | 0.00 | 0.13 | 0.04 | 95 | 949.2 |
| 20260504025130 | 53 | 148 | 0.0 | 0.0 | 0.00 | 0.13 | 0.04 | 95 | 949.2 |
| 20260504024630 | 53 | 148 | 0.0 | 0.0 | 0.00 | 0.13 | 0.04 | 95 | 949.2 |
| 20260504023922 | 53 | 148 | 0.0 | 0.0 | 0.00 | 0.13 | 0.04 | 95 | 949.3 |
| 20260504023422 | 53 | 148 | 0.0 | 0.0 | 0.00 | 0.13 | 0.04 | 95 | 949.3 |
| 20260504022925 | 53 | 148 | 0.0 | 0.0 | 0.00 | 0.13 | 0.04 | 95 | 949.3 |
| 20260504022921 | 53 | 148 | 0.0 | 0.0 | 0.00 | 0.13 | 0.04 | 95 | 949.2 |
| 20260504022421 | 53 | 148 | 0.0 | 1.7 | 0.00 | 0.13 | 0.04 | 95 | 949.3 |
| 20260504022130 | 53 | 148 | 0.0 | 1.7 | 0.00 | 0.13 | 0.04 | 94 | 949.2 |
| 20260504021421 | 54 | 148 | 0.0 | 0.0 | 0.00 | 0.13 | 0.04 | 95 | 949.2 |
| 20260504020922 | 54 | 148 | 0.0 | 0.0 | 0.01 | 0.13 | 0.04 | 95 | 949.3 |
| 20260504020421 | 54 | 148 | 0.0 | 0.0 | 0.01 | 0.13 | 0.04 | 95 | 949.2 |
| 20260504015921 | 54 | 148 | 0.0 | 0.0 | 0.01 | 0.13 | 0.04 | 94 | 949.2 |
| 20260504015421 | 54 | 148 | 0.0 | 2.6 | 0.02 | 0.13 | 0.04 | 94 | 949.2 |
| 20260504014921 | 53 | 148 | 0.0 | 5.2 | 0.02 | 0.13 | 0.04 | 94 | 949.1 |
| 20260504014421 | 53 | 155 | 1.7 | 5.2 | 0.02 | 0.13 | 0.04 | 93 | 949.2 |
| 20260504013921 | 54 | 120 | 0.9 | 4.3 | 0.02 | 0.13 | 0.04 | 94 | 949.3 |
| 20260504013629 | 54 | 154 | 0.9 | 5.2 | 0.02 | 0.13 | 0.04 | 94 | 949.2 |
| 20260504012920 | 54 | 120 | 4.3 | 5.2 | 0.02 | 0.13 | 0.04 | 93 | 949.2 |
| 20260504012420 | 55 | 121 | 1.7 | 2.6 | 0.02 | 0.13 | 0.04 | 93 | 949.2 |
| 20260504011921 | 55 | 226 | 0.0 | 1.7 | 0.02 | 0.13 | 0.04 | 93 | 949.2 |
| 20260504011420 | 55 | 235 | 0.0 | 1.7 | 0.02 | 0.13 | 0.04 | 93 | 949.2 |
| 20260504010920 | 55 | 240 | 0.9 | 1.7 | 0.02 | 0.13 | 0.03 | 93 | 949.2 |
| 20260504010420 | 55 | 213 | 0.0 | 1.7 | 0.02 | 0.13 | 0.03 | 93 | 949.1 |
| 20260504005920 | 55 | 226 | 0.0 | 1.7 | 0.02 | 0.11 | 0.03 | 93 | 949.0 |
| 20260504005419 | 55 | 128 | 0.0 | 2.6 | 0.00 | 0.11 | 0.02 | 93 | 949.2 |
| 20260504005128 | 55 | 125 | 0.0 | 2.6 | 0.00 | 0.11 | 0.02 | 93 | 949.2 |
| 20260504004419 | 55 | 103 | 0.0 | 0.9 | 0.00 | 0.11 | 0.02 | 93 | 949.3 |
| 20260504003919 | 55 | 103 | 0.0 | 0.9 | 0.00 | 0.11 | 0.02 | 93 | 949.2 |
| 20260504003420 | 55 | 171 | 0.0 | 1.7 | 0.00 | 0.11 | 0.02 | 93 | 949.3 |
| 20260504002920 | 55 | 142 | 0.0 | 3.5 | 0.00 | 0.11 | 0.02 | 93 | 949.4 |
| 20260504002419 | 55 | 149 | 1.7 | 3.5 | 0.00 | 0.11 | 0.02 | 93 | 949.4 |
| 20260504001919 | 55 | 158 | 1.7 | 1.7 | 0.00 | 0.11 | 0.02 | 93 | 949.4 |
| 20260504001628 | 55 | 314 | 0.9 | 1.7 | 0.00 | 0.11 | 0.02 | 93 | 949.5 |
| 20260504001128 | 55 | 314 | 0.0 | 1.7 | 0.01 | 0.11 | 0.02 | 93 | 949.4 |
| 20260504000419 | 55 | 147 | 0.0 | 0.9 | 0.02 | 0.11 | 0.02 | 94 | 949.4 |
| 20260503235919 | 54 | 140 | 0.0 | 2.6 | 0.02 | 0.09 | 0.02 | 94 | 949.3 |
| 20260503235419 | 54 | 140 | 0.9 | 3.5 | 0.02 | 0.09 | 0.02 | 94 | 949.5 |
| 20260503234918 | 55 | 131 | 2.6 | 3.5 | 0.02 | 0.09 | 0.02 | 93 | 949.5 |
| 20260503234419 | 55 | 133 | 1.7 | 2.6 | 0.02 | 0.09 | 0.02 | 93 | 949.4 |
| 20260503233918 | 55 | 235 | 0.0 | 1.7 | 0.02 | 0.09 | 0.02 | 93 | 949.4 |
| 20260503233419 | 55 | 235 | 0.0 | 0.9 | 0.02 | 0.09 | 0.02 | 93 | 949.3 |
| 20260503233126 | 55 | 234 | 0.0 | 0.0 | 0.02 | 0.09 | 0.02 | 93 | 949.3 |
| 20260503232626 | 55 | 234 | 0.0 | 1.7 | 0.02 | 0.09 | 0.02 | 92 | 949.4 |